Location: Bieujac
(44.5398°N, 0.1549°W)
Time: 13:18:37
(UTC+00:00)

SL-4 R/B - Pass Details

Date: 17 November 2019
Orbit: 428 x 667 km, 51.6° (Epoch: 08 December)

Event Time Altitude Azimuth Distance (km) Brightness Sun altitude
Exits shadow 05:35:23 22° 306° (NW) 1,464 3.6 -14.9°
Maximum altitude 05:38:32 71° 27° (NNE) 705 2.5 -14.3°
Drops below altitude 10° 05:43:20 10° 112° (ESE) 2,064 6.4 -13.5°
Sets 05:45:39 0° 114° (ESE) 2,953 7.6 -13.1°
